{"data":{"norad_id":48989,"intl_designator":"2021-060Y","name":"ONEWEB-0271","alt_names":[],"object_type":"PAYLOAD","status":"ACTIVE","operator":null,"country":"UK","launch_date":"2021-07-01","launch_site_code":"VOSTO","launch_vehicle":null,"mission":null,"orbit_class":"UNKNOWN","rcs_meters":null,"size_class":null,"mass_kg":null,"dimensions":null,"purposes":["comms"],"wikipedia_slug":null,"has_3d_model":false,"image_url":null,"decayed_at":null,"tle_current":{"epoch":"2026-05-24T23:48:08.788032Z","epoch_age_seconds":78978,"freshness":"FRESH","line1":"1 48989U 21060Y   26144.99176838  .00000000  00000+0 -33282-4 0  9997","line2":"2 48989  87.9105 233.3783 0001778  95.7889 264.3445 13.16593163236612","mean_motion":13.16593163,"eccentricity":0.0001778,"inclination_deg":87.9105,"raan_deg":233.3783,"arg_perigee_deg":95.7889,"mean_anomaly_deg":264.3445,"bstar":-3.3282e-5,"rev_number":23661,"period_min":109.37319442848,"perigee_km":1196.4138691571,"apogee_km":1199.1078584375,"semimajor_km":7575.8978637973,"source":"CELESTRAK","updated_at":"2026-05-25T13:38:22.477164Z"}}}